This demonstration page uses our WeatherBlox Daily Observations layout. Learn more.

Left ArrowRight Arrow

Hourly Observations for February 5, 2017

Temp ( °F °C ) Dew Point ( °F °C ) Humidity (%) Winds ( mph kmh ) Pressure ( in mb ) Visibility ( mi km ) Precip ( " mm )
12:53 am 00:53 Cloudy 34 1.1 14 -10 44 44 N N/A 30.06 1018 10 16 N/A
1:53 am 01:53 Cloudy 34 1.1 15 -9.4 46 46 N N/A 30.04 1017 10 16 N/A
2:53 am 02:53 Cloudy 39 3.9 15 -9.4 38 38 SW 8 13 30.02 1017 10 16 N/A
3:53 am 03:53 Cloudy 40 4.4 16 -8.9 38 38 WSW 12 19 30.02 1017 10 16 N/A
4:53 am 04:53 Cloudy 39 3.9 19 -7.2 45 45 WSW 6 9 30.02 1017 10 16 N/A
5:53 am 05:53 Cloudy 40 4.4 23 -5 51 51 WSW 9 15 30.03 1017 10 16 N/A
6:53 am 06:53 Mostly Clear 38 3.3 22 -5.6 52 52 WSW 7 11 30.04 1017 10 16 N/A
7:53 am 07:53 Sunny 37 2.8 22 -5.6 54 54 WSW 5 7 30.04 1017 10 16 N/A
8:53 am 08:53 Sunny 40 4.4 24 -4.4 53 53 SW 12 19 30.05 1018 10 16 N/A
9:53 am 09:53 Sunny 42 5.6 26 -3.3 53 53 WSW 13 20 30.05 1018 10 16 N/A
10:53 am 10:53 Sunny 45 7.2 27 -2.8 49 49 WSW 15 24 30.05 1018 10 16 N/A
11:53 am 11:53 Sunny 48 8.9 29 -1.7 48 48 W 13 20 30.04 1017 10 16 N/A
12:53 pm 12:53 Sunny 49 9.4 29 -1.7 46 46 WSW 14 22 30.03 1017 10 16 N/A
1:53 pm 13:53 Sunny 51 10.6 30 -1.1 44 44 WSW 13 20 30.02 1017 10 16 N/A
2:53 pm 14:53 Sunny 52 11.1 30 -1.1 43 43 W 14 22 30.01 1016 10 16 N/A
3:53 pm 15:53 Sunny 52 11.1 30 -1.1 43 43 W 13 20 30.02 1017 10 16 N/A
4:53 pm 16:53 Sunny 50 10 30 -1.1 46 46 W 12 19 30.04 1017 10 16 N/A
5:53 pm 17:53 Sunny 48 8.9 30 -1.1 50 50 W 8 13 30.08 1019 10 16 N/A
6:53 pm 18:53 Clear 40 4.4 29 -1.7 65 65 WNW 6 9 30.11 1020 10 16 N/A
7:53 pm 19:53 Clear 36 2.2 28 -2.2 73 73 W 5 7 30.13 1020 10 16 N/A
8:53 pm 20:53 Clear 31 -0.6 25 -3.9 79 79 N N/A 30.14 1021 10 16 N/A
9:53 pm 21:53 Clear 30 -1.1 24 -4.4 79 79 N N/A 30.16 1021 10 16 N/A
10:53 pm 22:53 Clear 29 -1.7 26 -3.3 89 89 N N/A 30.17 1022 10 16 N/A
11:53 pm 23:53 Clear 27 -2.8 25 -3.9 92 92 N N/A 30.16 1022 9 14 N/A

Powered by AerisWeather